Weather past 2 weeks in Cayenne, French Guiana

Now
73 °F

Passing clouds.


Feels Like: 68 °F
Forecast: 78 / 86 °F
Wind: No wind

Location: Cayenne / Rochambeau

Current Time: Aug 4, 2015 at 4:43:10 AM

Latest Report: Aug 4, 2015 at 4:00 AM


Visibility: N/A

Pressure: 29.92 "Hg

Humidity: 100%

Dew point: 73 °F

Location of CayenneLocation

Historic Weather in Cayenne — Graph

°F

Cayenne temperature yesterday

Maximum temperature yesterday: 90 °F (at 2:00 PM)
Minimum temperature yesterday: 73 °F (at 5:30 AM)
Average temperature yesterday: 81 °F

Past Weeks' High & Low Weather Summary

 TemperatureHumidityPressure
High91 °F (Jul 29, 1:00 PM)100% (Jul 20, 10:00 PM)30.04 "Hg (Jul 20, 10:00 PM)
Low72 °F (Jul 24, 6:00 AM)52% (Jul 29, 1:30 PM)29.83 "Hg (Jul 28, 3:00 PM)
Average80 °F86%29.92 "Hg
* Reported Jul 20 3:00 AM — Aug 4 3:30 AM, Cayenne, Weather by CustomWeather, © 2015

Note: Actual official high and low records may vary slightly from our data, if they occured in-between our weather recording intervals... More about our weather records

Advertising

Cayenne weather history for previous 24 hours

 ConditionsComfort  
Time TempWeatherWind HumidityBarometerVisibility
3:30 AM
Tue, Aug 4
73 °FPartly cloudy.No wind100%29.92 "HgN/A
3:00 AM73 °FMild.No wind100%29.92 "HgN/A
2:30 AM75 °FPassing clouds.No wind94%29.95 "HgN/A
2:00 AM75 °FMild.No wind94%29.95 "HgN/A
1:30 AM75 °FMild.No wind94%29.95 "HgN/A
1:00 AM75 °FMild.No wind94%29.95 "HgN/A
12:30 AM75 °FMild.No wind94%29.95 "HgN/A
12:00 AM77 °FWarm.No wind89%29.95 "HgN/A
11:30 PM
Mon, Aug 3
77 °FWarm.No wind89%29.98 "HgN/A
11:00 PM77 °FWarm.No wind94%29.98 "HgN/A
10:30 PM79 °FWarm.2 mph84%29.95 "HgN/A
10:00 PM79 °FWarm.2 mph84%29.95 "HgN/A
9:30 PM81 °FWarm.5 mph79%29.95 "HgN/A
9:00 PM81 °FWarm.6 mph79%29.92 "HgN/A
8:30 PM81 °FWarm.6 mph79%29.92 "HgN/A
8:00 PM81 °FWarm.7 mph84%29.89 "HgN/A
7:30 PM81 °FWarm.7 mph84%29.89 "HgN/A
7:00 PM82 °FWarm.8 mph79%29.89 "HgN/A
6:30 PM82 °FWarm.10 mph79%29.86 "HgN/A
6:00 PM84 °FWarm.12 mph70%29.86 "HgN/A
5:30 PM86 °FWarm.13 mph70%29.86 "HgN/A
5:00 PM88 °FWarm.13 mph66%29.86 "HgN/A
4:30 PM88 °FWarm.12 mph62%29.86 "HgN/A
4:00 PM88 °FWarm.12 mph66%29.86 "HgN/A
3:30 PM88 °FPassing clouds.13 mph66%29.86 "HgN/A
3:00 PM90 °FScattered clouds.10 mph63%29.86 "HgN/A
2:30 PM88 °FPartly sunny.10 mph66%29.89 "HgN/A
2:00 PM90 °FScattered clouds.10 mph63%29.89 "HgN/A
1:30 PM88 °FPartly sunny.10 mph62%29.92 "HgN/A
1:00 PM88 °FPartly sunny.10 mph62%29.92 "HgN/A
12:30 PM88 °FScattered clouds.12 mph62%29.92 "HgN/A
12:00 PM86 °FScattered clouds.7 mph66%29.95 "HgN/A
11:30 AM86 °FPassing clouds.8 mph66%29.95 "HgN/A
11:00 AM86 °FPartly sunny.10 mph66%29.95 "HgN/A
10:30 AM88 °FScattered clouds.6 mph62%29.95 "HgN/A
10:00 AM86 °FBroken clouds.8 mph66%29.95 "HgN/A
9:30 AM84 °FPartly sunny.9 mph74%29.95 "HgN/A
9:00 AM84 °FScattered clouds.7 mph70%29.92 "HgN/A
8:30 AM82 °FWarm.5 mph79%29.92 "HgN/A
8:00 AM79 °FWarm.3 mph89%29.92 "HgN/A
7:30 AM77 °FWarm.No wind94%29.92 "HgN/A
7:00 AM73 °FPartly sunny.No wind100%29.92 "HgN/A
6:30 AM73 °FPassing clouds.No wind100%29.89 "HgN/A
6:00 AM73 °FPassing clouds.No wind100%29.89 "HgN/A
5:30 AM73 °FMild.No wind100%29.89 "HgN/A
5:00 AM75 °FMild.No wind94%29.89 "HgN/A
4:30 AM75 °FPassing clouds.No wind94%29.89 "HgN/A
4:00 AM75 °FMostly cloudy.No wind94%29.89 "HgN/A
Weather by CustomWeather, © 2015

See weather overviewHow to use our weather pages